FW0273 Weather Reports


time (UTC)temp
C
wind
direction
speed
KPH
gust
KPH
rain 1hr
cm
rain 24hr
cm
rain mn
cm
humidity
%
barometer
mb
20260509043249 21 205 4.8 6.4 0.08 0.84 0.84 84 1010.2
20260509042248 21 201 4.8 16.1 0.08 0.84 0.84 83 1010.2
20260509041306 22 192 4.8 16.1 0.08 0.84 0.84 81 1010.2
20260509040245 22 144 1.6 1.6 0.00 0.76 0.76 79 1011.6
20260509035244 22 144 1.6 1.6 0.00 0.76 0.76 79 1011.6
20260509034252 22 0.0 0.0 0.00 0.76 0.76 79 1011.6
20260509033251 22 0.0 1.6 0.00 0.76 0.76 79 1011.0
20260509032249 22 0.0 1.6 0.00 0.76 0.76 79 1011.0
20260509031248 22 0.0 0.0 0.00 0.76 0.76 79 1011.0
20260509030247 22 144 1.6 1.6 0.00 0.76 0.76 79 1010.7
20260509025246 22 129 3.2 6.4 0.00 0.76 0.76 79 1010.5
20260509024244 22 122 6.4 6.4 0.00 0.76 0.76 79 1010.1
20260509023253 22 111 6.4 9.7 0.00 0.76 0.76 78 1009.8
20260509022312 22 110 4.8 9.7 0.00 0.76 0.76 78 1009.9
20260509021251 22 105 1.6 6.4 0.00 0.76 0.76 78 1009.9
20260509020249 22 140 3.2 4.8 0.00 0.76 0.76 77 1009.8
20260509015309 22 128 3.2 4.8 0.00 0.76 0.76 77 1009.7
20260509014247 22 105 3.2 4.8 0.00 0.76 0.76 77 1009.6
20260509013245 22 0.0 3.2 0.00 0.76 0.76 76 1009.5
20260509012244 22 133 0.0 9.7 0.00 0.76 0.76 75 1009.5
20260509011253 22 133 1.6 9.7 0.00 0.76 0.76 74 1009.5
20260509010252 23 111 9.7 12.9 0.00 0.76 0.76 73 1009.1
20260509005250 23 118 9.7 12.9 0.00 0.76 0.76 73 1009.0
20260509004310 23 134 8.0 8.0 0.00 0.76 0.76 72 1008.9
20260509003248 23 116 4.8 11.3 0.00 0.76 0.76 71 1008.9
20260509002307 23 115 4.8 11.3 0.00 0.76 0.76 71 1008.9
20260509001245 23 112 3.2 8.0 0.00 0.76 0.76 71 1009.0
20260509000244 24 117 4.8 8.0 0.00 0.76 0.76 70 1009.4
20260508235252 24 119 4.8 9.7 0.00 0.76 0.76 69 1009.4
20260508234251 24 122 6.4 9.7 0.00 0.76 0.76 69 1009.4
20260508233250 25 128 4.8 11.3 0.00 0.76 0.76 68 1009.4
20260508232249 25 126 4.8 11.3 0.00 0.76 0.76 68 1009.5
20260508231247 25 123 4.8 6.4 0.00 0.76 0.76 69 1009.6
20260508230246 25 127 6.4 8.0 0.00 0.76 0.76 68 1009.5
20260508225245 25 128 6.4 8.0 0.00 0.76 0.76 67 1009.5
20260508224244 26 129 4.8 6.4 0.00 0.76 0.76 65 1009.5
20260508223252 26 92 3.2 6.4 0.00 0.76 0.76 65 1009.4
20260508222251 26 127 3.2 9.7 0.00 0.76 0.76 66 1009.3
20260508221250 26 178 4.8 9.7 0.00 0.76 0.76 66 1009.2
20260508220249 26 90 3.2 16.1 0.00 0.76 0.76 65 1009.2
20260508215247 26 111 4.8 16.1 0.00 0.76 0.76 65 1009.2
20260508214246 26 128 8.0 14.5 0.00 0.76 0.76 66 1009.4
20260508213305 25 128 4.8 12.9 0.00 0.76 0.76 65 1009.8
20260508212244 25 128 4.8 12.9 0.00 0.76 0.76 65 1009.8
20260508211313 24 100 4.8 9.7 0.00 0.76 0.76 68 1010.7
20260508210251 24 83 1.6 9.7 0.00 0.76 0.76 66 1011.0
20260508205310 25 105 1.6 11.3 0.00 0.76 0.76 65 1011.1
20260508204249 25 153 1.6 11.3 0.00 0.76 0.76 64 1011.1
20260508203247 25 154 1.6 4.8 0.00 0.76 0.76 64 1011.1
20260508202246 25 172 1.6 8.0 0.00 0.76 0.76 63 1011.2
20260508201245 26 209 1.6 8.0 0.00 0.76 0.76 62 1011.3
20260508200253 26 94 6.4 14.5 0.00 0.76 0.76 63 1011.3
20260508195252 26 94 6.4 14.5 0.00 0.76 0.76 63 1011.3
20260508194330 25 128 8.0 9.7 0.00 0.76 0.76 63 1011.5
20260508193249 26 125 8.0 17.7 0.00 0.76 0.76 63 1011.7
20260508192308 25 124 9.7 17.7 0.00 0.76 0.76 63 1011.7
20260508191327 25 123 11.3 14.5 0.00 0.76 0.76 63 1011.8
20260508190306 25 105 1.6 14.5 0.00 0.76 0.76 63 1011.8
20260508185244 25 105 1.6 14.5 0.00 0.76 0.76 63 1011.8
20260508184253 25 114 6.4 11.3 0.00 0.76 0.76 64 1012.1
20260508183312 25 122 6.4 14.5 0.00 0.76 0.76 65 1012.4
20260508182250 25 121 4.8 14.5 0.00 0.76 0.76 66 1012.5
20260508181309 25 110 1.6 8.0 0.00 0.76 0.76 66 1012.7
20260508180248 23 0.0 3.2 0.00 0.76 0.76 63 1013.0
20260508175247 23 134 0.0 9.7 0.00 0.76 0.76 64 1013.0
20260508174245 23 134 1.6 9.7 0.00 0.76 0.76 66 1013.1
20260508173244 23 92 1.6 16.1 0.00 0.76 0.76 67 1013.7
20260508172252 23 92 1.6 16.1 0.00 0.76 0.76 67 1013.7
20260508171251 23 119 6.4 11.3 0.00 0.76 0.76 69 1013.9
20260508170250 22 145 4.8 11.3 0.00 0.76 0.76 68 1014.2
20260508165248 22 140 3.2 11.3 0.00 0.76 0.76 68 1014.3
20260508164247 21 107 1.6 4.8 0.00 0.76 0.76 68 1014.7
20260508163246 21 103 3.2 12.9 0.00 0.76 0.76 70 1014.8
20260508162244 21 117 3.2 12.9 0.00 0.76 0.76 70 1014.8
20260508161253 21 202 1.6 3.2 0.00 0.76 0.76 72 1014.8
20260508160252 20 127 1.6 9.7 0.00 0.76 0.76 72 1015.2
20260508155250 20 127 1.6 14.5 0.00 0.76 0.76 73 1015.1
20260508154250 20 0.0 14.5 0.00 0.76 0.76 74 1015.0
20260508153248 20 0.0 6.4 0.00 0.76 0.76 76 1015.3
20260508152247 20 0.0 6.4 0.00 0.76 0.76 76 1015.3
20260508151246 19 0.0 6.4 0.00 0.76 0.76 76 1015.2
20260508150304 18 129 4.8 6.4 0.00 0.76 0.76 81 1015.2
20260508145253 18 113 4.8 11.3 0.00 0.76 0.76 83 1015.2
20260508144252 18 89 6.4 11.3 0.00 0.76 0.76 85 1015.4
20260508143250 17 165 1.6 6.4 0.00 0.76 0.76 87 1015.4
20260508142249 17 136 3.2 6.4 0.00 0.76 0.76 87 1015.4
20260508141248 17 117 4.8 4.8 0.03 0.76 0.76 88 1015.4
20260508140307 17 126 1.6 4.8 0.03 0.76 0.76 89 1015.2
20260508135306 17 127 1.6 4.8 0.03 0.76 0.76 89 1015.3
20260508134244 16 129 1.6 3.2 0.03 0.76 0.76 89 1015.4
20260508133253 16 0.0 1.6 0.05 0.76 0.76 89 1015.3
20260508132251 16 161 0.0 1.6 0.05 0.76 0.76 89 1015.4
20260508131250 16 161 1.6 1.6 0.10 0.74 0.74 89 1015.7
20260508130249 16 161 1.6 1.6 0.10 0.74 0.74 89 1015.5
20260508125247 16 161 1.6 3.2 0.10 0.74 0.74 89 1015.6
20260508124246 16 161 1.6 3.2 0.10 0.74 0.74 89 1015.6
20260508123245 16 161 1.6 1.6 0.10 0.71 0.71 89 1015.5
20260508122244 16 138 3.2 4.8 0.10 0.71 0.71 89 1015.6
20260508121252 16 123 4.8 4.8 0.05 0.64 0.64 89 1015.7
20260508120311 16 103 3.2 9.7 0.08 0.64 0.64 89 1015.5
20260508115310 16 103 3.2 9.7 0.08 0.64 0.64 89 1015.5
20260508114249 16 0.0 0.0 0.10 0.64 0.64 89 1015.6
20260508113308 16 128 1.6 6.4 0.15 0.61 0.61 89 1015.3
20260508112246 16 128 1.6 6.4 0.15 0.61 0.61 89 1015.5
20260508111245 16 0.0 3.2 0.13 0.58 0.58 89 1016.1
20260508110303 16 140 4.8 6.4 0.10 0.56 0.56 89 1015.6
20260508105313 16 140 4.8 6.4 0.10 0.56 0.56 89 1015.6
20260508104251 16 0.0 1.6 0.08 0.53 0.53 89 1014.8
20260508103310 16 146 3.2 3.2 0.00 0.46 0.46 89 1014.5
20260508102309 16 146 1.6 3.2 0.00 0.46 0.46 89 1014.4
20260508101248 16 0.0 3.2 0.03 0.46 0.46 89 1014.3
20260508100246 16 0.0 4.8 0.03 0.46 0.46 88 1014.5
20260508095307 16 0.0 4.8 0.03 0.46 0.46 88 1014.5
20260508094244 16 0.0 1.6 0.10 0.46 0.46 88 1014.7
20260508093333 16 169 3.2 3.2 0.13 0.46 0.46 88 1014.5
20260508092313 16 169 1.6 3.2 0.13 0.46 0.46 88 1014.8
20260508091250 16 0.0 0.0 0.43 0.43 0.43 88 1015.3
20260508090249 16 0.0 1.6 0.43 0.43 0.43 86 1014.9
20260508085248 16 153 0.0 3.2 0.43 0.43 0.43 86 1015.1
20260508084246 16 153 1.6 3.2 0.36 0.36 0.36 85 1015.3
20260508083245 17 0.0 1.6 0.33 0.33 0.33 82 1015.5
20260508082244 17 0.0 1.6 0.33 0.33 0.33 82 1015.8
20260508081252 17 0.0 1.6 0.00 0.00 0.00 81 1016.4
20260508080251 16 110 1.6 1.6 0.00 0.00 0.00 82 1016.2
20260508075250 16 110 1.6 3.2 0.00 0.00 0.00 82 1016.1
20260508074249 16 0.0 3.2 0.00 0.00 0.00 82 1015.7
20260508073248 16 0.0 0.0 0.00 0.00 0.00 81 1016.0
20260508072246 16 0.0 1.6 0.00 0.00 0.00 81 1016.0
20260508071245 16 0.0 1.6 0.00 0.00 0.00 81 1015.9
20260508070304 16 0.0 0.0 0.00 0.00 0.00 81 1016.5
20260508065253 16 0.0 1.6 0.00 0.00 0.00 81 1016.5
20260508064251 17 0.0 1.6 0.00 0.00 0.00 82 1016.5
20260508063250 17 109 1.6 3.2 0.00 0.00 0.00 79 1016.5
20260508062249 17 120 1.6 4.8 0.00 0.00 0.00 79 1016.5
20260508061247 17 131 3.2 4.8 0.00 0.00 0.00 78 1016.5
20260508060306 17 129 3.2 3.2 0.00 0.00 0.00 77 1016.4
20260508055245 17 129 1.6 3.2 0.00 0.00 0.00 77 1016.4
20260508054314 17 0.0 1.6 0.00 0.00 0.00 77 1016.6
20260508053252 17 0.0 0.0 0.00 0.00 0.00 75 1016.6
20260508052251 17 0.0 0.0 0.00 0.00 0.00 75 1016.6
20260508051250 17 0.0 0.0 0.00 0.00 0.00 75 1016.5
20260508050249 17 0.0 0.0 0.00 0.00 0.00 74 1016.6
20260508045247 17 0.0 0.0 0.00 0.00 0.00 74 1016.5
20260508044306 17 0.0 0.0 0.00 0.00 0.00 73 1016.4